Regional Weather Roundup
Issued by NWS

Home | Current Version | Previous Version | Text Only | Print | Product List | Glossary On
Versions: 1 2 3 4 5 6 7 8 9 10 11 12 13 14 15 16 17 18 19 20 21 22 23 24 25 26 27 28 29 30 31 32 33 34 35 36 37 38 39 40 41 42 43 44 45 46 47 48 49 50
979
ASUS43 KMKX 171600
RWRWI

WISCONSIN REGIONAL WEATHER ROUNDUP
NATIONAL WEATHER SERVICE MILWAUKEE/SULLIVAN WI
1000 AM CST TUE JAN 17 2017

NOTE: "FAIR" INDICATES FEW OR NO CLOUDS BELOW 12,000 FEET WITH NO
SIGNIFICANT WEATHER AND/OR OBSTRUCTIONS TO VISIBILITY.

WIZ001-002-006>008-014>016-023>028-171700-
NORTHWEST WISCONSIN

CITY           SKY/WX    TMP DP  RH WIND       PRES   REMARKS
SUPERIOR ARPT  CLOUDY    26  22  84 CALM      29.99R
ASHLAND        CLOUDY    30  26  85 W6        29.97  WCI  24
HAYWARD        MOSUNNY   31  23  72 CALM      29.94
SIREN          CLOUDY    30  23  74 NW3       29.97R
CUMBERLAND     CLOUDY    30  27  86 N9        29.94R WCI  22
RICE LAKE      DRIZZLE   33  32  95 NW3       29.94R
CHETEK         NOT AVBL
LADYSMITH      CLOUDY    35  33  93 NE3       29.91F
EAU CLAIRE     NOT AVBL
MENOMONIE      DRIZZLE   35  35 100 NW3       29.92S
NEW RICHMOND   CLOUDY    30  30 100 NW8       29.96R WCI  23
OSCEOLA        CLOUDY    29  26  86 NW7       30.00R WCI  22
$$

WIZ003>005-009-010-017-018-171700-
NORTH CENTRAL WISCONSIN

CITY           SKY/WX    TMP DP  RH WIND       PRES   REMARKS
MANITOWISH WTR CLOUDY    30  25  83 CALM      29.89F
ARBOR VITAE    CLOUDY    32  28  85 N5        29.89R WCI  27
WOODRUFF       CLOUDY    32  28  85 N5        29.89R WCI  27
RHINELANDER    CLOUDY    33  26  75 NE3       29.89
EAGLE RIVER    CLOUDY    31  21  65 CALM      29.89R
LAND O LAKES   CLOUDY    32  18  56 CALM      29.91R
PHILLIPS       CLOUDY    31  30  95 CALM      29.89S
TOMAHAWK       PTSUNNY   32  30  92 CALM      29.89S
MEDFORD        CLOUDY    33  32  97 NE5       29.88R WCI  28
MERRILL        CLOUDY    33  33  99 NE6         N/A  WCI  27
$$

WIZ029-030-035-036-043>047-171700-
CENTRAL WISCONSIN

CITY           SKY/WX    TMP DP  RH WIND       PRES   REMARKS
WAUSAU         CLOUDY    34  32  92 N3        29.86S FOG
MOSINEE        NOT AVBL
MARSHFIELD     CLOUDY    33  32  96 NE8       29.85F FOG     WCI  26
STEVENS POINT  MIX PCPN  31  31 100 N3        29.87S
WAUPACA        CLOUDY    34  33  93 CALM      29.86S FOG
WAUTOMA        CLOUDY    34  33  96 N6          N/A  FOG     WCI  29
WISC RAPIDS    CLOUDY    33  33 100 NE6       29.89R FOG     WCI  28
CAMP DOUGLAS   NOT AVBL
$$

WIZ011>013-019>022-031-037>040-048>050-171700-
NORTHEAST WISCONSIN

CITY           SKY/WX    TMP DP  RH WIND       PRES   REMARKS
ANTIGO         CLOUDY    32  32 100 NE7       29.86S WCI  26
SHAWANO        CLOUDY    35  33  93 N3        29.87R
OCONTO         CLOUDY    32  32  99 NE7       29.85S WCI  26
STURGEON BAY   CLOUDY    35  34  96 NE8       29.84S FOG     WCI  29
GREEN BAY      CLOUDY    35  35 100 N10       29.85  FOG     WCI  27
MANITOWOC      NOT AVBL
APPLETON       FOG       34  34 100 N9        29.83R VSB 1   WCI  26
CLINTONVILLE   CLOUDY    32  32 100 N5        29.87R WCI  27
OSHKOSH        FOG       33  32  96 N10       29.83  VSB 1   WCI  25
$$

WIZ032>034-041-042-053>061-171700-
SOUTHWEST WISCONSIN

CITY           SKY/WX    TMP DP  RH WIND       PRES   REMARKS
LA CROSSE      CLOUDY    36  33  89 NW6       29.90S FOG     WCI  31
SPARTA         CLOUDY    32  32 100 NW3       29.90R FOG
VIROQUA        CLOUDY    32  32 100 CALM      29.87R VSB 1/2
BOSCOBEL       CLOUDY    35  34  96 CALM      29.90R FOG
PRAIRIE DU CHI CLOUDY    34  33  96 CALM      29.90R FOG
PLATTEVILLE    CLOUDY    33  33 100 W6        29.88R VSB 1/4 WCI  28
$$

WIZ056-057-062-063-064-067-068-171700-
SOUTH CENTRAL WISCONSIN

CITY           SKY/WX    TMP DP  RH WIND       PRES   REMARKS
REEDSBURG      NOT AVBL
BARABOO/DELLS  FOG       32  32  99 NW3       29.86R VSB 1/2
LONE ROCK      CLOUDY    34  33  96 W3        29.89R FOG
MINERAL POINT  FOG       34  34 100 W3        29.87R VSB 1/4
MADISON        FOG       33  33 100 NW6       29.87  VSB 1/2 WCI  28
MIDDLETON      CLOUDY    35  35 100 W3        29.86R VSB 3/4
WATERTOWN      CLOUDY    34  34 100 NW6       29.84R FOG     WCI  29
MONROE         FOG       34  34 100 W8        29.86R VSB 1/2 WCI  27
JANESVILLE     FOG       36  36 100 W6        29.87  VSB 3/4 WCI  31
$$

WIZ051-052-058>065-066-070>072-171700-
SOUTHEAST WISCONSIN

CITY           SKY/WX    TMP DP  RH WIND       PRES   REMARKS
MILWAUKEE      CLOUDY    38  36  92 NW7       29.83R FOG     WCI  33
WAUKESHA       CLOUDY    34  34 100 W6        29.84R FOG     WCI  29
MILWAUKEE/TIMM CLOUDY    36  34  93 NW6       29.84  FOG     WCI  31
RACINE         CLOUDY    37  36  96 W7        29.85R FOG     WCI  32
KENOSHA        CLOUDY    36  35  96 W10       29.84  FOG     WCI  28
FOND DU LAC    MIX PCPN  34  31  88 N8        29.84R VSB 1/2 WCI  27
SHEBOYGAN      CLOUDY    35  34  96 N7        29.82R FOG     WCI  29
WEST BEND      FOG       34  34 100 NW5       29.83R VSB 1/4 WCI  30
JUNEAU         CLOUDY    32  32  99 NW3       29.85R FOG
$$

LSZ147-162-171700-
LAKE SUPERIOR

STATION/POSITION TIME  TEMP    WIND        PRES    WAVE
                       AIR SEA DIR/SP/G            HT/PER
                 (UTC) (F)     (DEG/KT/KT) (MB)    (FT/S)
DEVILS ISLAND    1500   35      40/  6/  6 1015.1R
PORT WING        1530   20     170/  5/  6 1015.2R
SAXON HARBOR     1540   26     180/  2/  3 1014.2R
$$

LMZ867-665-643>646-171700-
LAKE MICHIGAN

STATION/POSITION TIME  TEMP    WIND        PRES    WAVE
                       AIR SEA DIR/SP/G            HT/PER
                 (UTC) (F)     (DEG/KT/KT) (MB)    (FT/S)
NORTHPORT PIER   1540   34      60/ 16/ 20 1011.2F
SISTER BAY       1520   35      70/  9/ 14   N/A
KEWAUNEE LAKESHO 1530   35      20/  7/ 10 1009.4F
SHEBOYGAN LAKESH 1500   35     340/ 11/ 13 1009.5R
PORT WASHINGTON  1530   36     350/  3/  4 1010.5R
MILWAUKEE LAKESH 1530   36     280/  5/  6   N/A
KENOSHA   LAKESH 1500   36     300/  4/  7 1009.8
$$

TC  - TEMPERATURE IN CELSIUS
VSB - VISIBILITY IN STATUTE MILES
WCI - WIND CHILL INDEX
HX  - HEAT INDEX





USA.gov is the U.S. government's official web portal to all federal, state and local government web resources and services.